Tracking 30101 objects as of 14-Dec-2024
HD Live streaming from Space Station
objects crossing your sky now

STARLINK-11085

Track STARLINK-11085 now!
10-day predictions
STARLINK-11085 is classified as:


NORAD ID: 59425
Int'l Code: 2024-065E
Perigee: 346.2 km
Apogee: 347.6 km
Inclination: 53.2 °
Period: 91.3 minutes
Semi major axis: 6717 km
RCS: Unknown
Launch date: April 7, 2024
Source: United States (US)
Launch site: AIR FORCE WESTERN TEST RANGE (AFWTR)
Your satellite tracking list
Your tracking list is empty




NASA's NSSDC Master Catalog

Two Line Element Set (TLE):
1 59425U 24065E   24348.21758397  .00002316  00000-0  18155-4 0  9991
2 59425  53.1589 163.9319 0001026 100.2015 259.9122 15.76713646 40491
Source of the keplerian elements: AFSPC